[[{"header":{"parameterUnit":"m.s-1","parameterCategory":1,"la1":30.2991,"la2":30.254,"lo1":-89.0895,"lo2":-89.0444,"dy":0.0017,"dx":0.0017,"nx":28,"ny":28,"refTime":"2024-04-09T03:00:00:Z","depth":0,"parameterNumber":2,"parameterNumberName":"U-component_of_WINDS"},"data":[0,0,0,0,0,0,0,0,0,0,0,0,0,0,0,0,0,0,0,0,0,0,0,0,0,0,0,0,0,0,0,0,0,0,0,0,0,0,0,0,0,0,0,0,0,0,0,0,0,0,0,0,0,0,0,0,0,0,-6.5032,-6.5035,0,-6.5268,-6.527,-6.5273,-6.5328,-6.5326,-6.5325,-6.5323,-6.5562,-6.557,-6.5578,0,0,0,0,0,0,0,0,0,0,0,0,0,-6.4628,-6.4636,-6.5032,-6.5035,-6.5038,-6.5267,-6.5271,-6.5274,-6.5328,-6.5326,-6.5324,-6.5322,-6.556,-6.5569,-6.5578,0,0,0,0,0,0,0,0,0,0,0,0,0,-6.4828,-6.4638,-6.5031,-6.5093,-6.51,-6.5267,-6.5271,-6.5275,-6.5329,-6.5326,-6.5324,-6.5321,-6.5557,-6.5568,-6.558,-6.5701,0,0,-6.5616,-6.5621,0,0,0,0,0,0,0,0,-6.4816,-6.4842,-6.5081,-6.5089,-6.5098,-6.5266,-6.5216,-6.5418,-6.5329,-6.5242,-6.5323,-6.532,-6.5466,-6.5485,-6.5534,-6.5712,-6.5723,-6.5617,-6.5624,-6.5629,-6.5632,0,0,0,0,0,0,0,-6.4802,-6.4833,-6.5125,-6.5084,-6.5094,-6.5108,-6.5134,-6.5255,-6.5364,-6.5249,-6.5254,-6.5281,-6.547,-6.5523,-6.554,-6.5726,-6.5617,-6.5627,-6.5634,-6.5639,-6.6018,-6.602,0,0,0,0,0,0,-6.4778,-6.4821,-6.5118,-6.5132,-6.4948,-6.5117,-6.5146,-6.5214,-6.5363,-6.5384,-6.5283,-6.5283,-6.5504,-6.5526,-6.5549,-6.5701,-6.5629,-6.564,-6.5647,-6.6015,-6.6018,-6.6022,0,0,0,0,0,0,-6.4769,-6.4804,-6.5108,-6.4978,-6.5018,-6.5127,-6.5203,-6.522,-6.5273,-6.5389,-6.5408,-6.5317,-6.5503,-6.5532,-6.5663,-6.571,-6.5645,-6.5656,-6.6011,-6.6016,-6.602,-6.6006,0,0,0,0,0,0,-6.4757,-6.4801,-6.4847,-6.4979,-6.5024,-6.5218,-6.5206,-6.5227,-6.5294,-6.5296,-6.5426,-6.5445,-6.5503,-6.5645,-6.5675,-6.5725,-6.5665,-6.6007,-6.6013,-6.6018,-6.6002,-6.6009,-6.6015,0,0,0,0,0,-6.4743,-6.4833,-6.4849,-6.4885,-6.5085,-6.5221,-6.5247,-6.5313,-6.5297,-6.5345,-6.542,-6.5441,-6.5701,-6.5658,-6.5692,-6.5746,-6.6005,-6.6012,-6.6018,-6.6,-6.6008,-6.6015,0,0,0,0,0,0,-6.4703,-6.4851,-6.4871,-6.5007,-6.5101,-6.523,-6.5292,-6.5319,-6.5419,-6.5417,-6.5494,-6.5523,-6.5649,-6.5712,-6.5662,-6.5873,-6.5852,-6.5866,-6.5827,-6.5836,-6.5842,-6.5823,-6.5675,0,0,0,0,0,-6.471,-6.4809,-6.4933,-6.504,-6.5087,-6.5182,-6.5243,-6.5286,-6.5387,-6.5426,-6.5511,-6.5607,-6.5711,-6.5777,-6.5879,-6.6013,-6.6042,-6.6067,-6.6073,-6.6078,-6.6088,-6.6165,-6.6177,-6.6043,-6.6043,-6.6043,0,0,-6.4726,-6.4819,-6.4876,-6.5035,-6.5113,-6.5213,-6.5215,-6.532,-6.5394,-6.5442,-6.5571,-6.5637,-6.575,-6.5883,-6.5946,-6.5939,-6.6132,-6.6087,-6.6089,-6.6097,-6.6173,-6.6185,-6.6196,-6.6048,-6.6047,-6.6046,0,0,-6.4804,-6.4885,-6.4984,-6.5063,-6.5182,-6.5245,-6.5269,-6.5395,-6.5441,-6.5572,-6.561,-6.5701,-6.5878,-6.5957,-6.602,-6.6133,-6.6155,-6.6164,-6.6195,-6.6269,-6.6279,-6.6289,-6.6329,-6.6342,-6.6174,-6.6174,-6.6174,0,-6.4808,-6.496,-6.5031,-6.5135,-6.5204,-6.5255,-6.5355,-6.5429,-6.5574,-6.5621,-6.5611,-6.5836,-6.5915,-6.6068,-6.6096,-6.6146,-6.6175,-6.6148,-6.6272,-6.6283,-6.6293,-6.6331,-6.6346,-6.6175,-6.6175,-6.6175,-6.6175,0,-6.4959,-6.5064,-6.513,-6.527,-6.5347,-6.5449,-6.5536,-6.5605,-6.5643,-6.5707,-6.5841,-6.5939,-6.6061,-6.6102,-6.6138,-6.6261,-6.6253,-6.6257,-6.6237,-6.6304,-6.6342,-6.6357,-6.6175,-6.6175,-6.6175,-6.6175,0,0,-6.5015,-6.5197,-6.5219,-6.5284,-6.5421,-6.5504,-6.5609,-6.5731,-6.5788,-6.5888,-6.5978,-6.6128,-6.6134,-6.6206,-6.6253,-6.6318,-6.6401,-6.6315,-6.6319,-6.6326,-6.6542,-6.6536,-6.6552,-6.6418,-6.6421,-6.6424,-6.6532,0,-6.5109,-6.5299,-6.5367,-6.5523,-6.5621,-6.5672,-6.5764,-6.5857,-6.5921,-6.6014,-6.6085,-6.6189,-6.6189,-6.6233,-6.63,-6.6376,-6.6445,-6.637,-6.6501,-6.6505,-6.6469,-6.6572,-6.6566,-6.6662,-6.6547,-6.6549,-6.6551,0,-6.5244,-6.5347,-6.5512,-6.5639,-6.5683,-6.5763,-6.5881,-6.597,-6.6078,-6.612,-6.6202,-6.6245,-6.6358,-6.6334,-6.649,-6.6437,-6.6496,-6.6542,-6.6547,-6.656,-6.653,-6.6586,-6.6695,-6.6709,-6.6575,-6.6573,-6.6572,0,-6.5267,-6.5448,-6.557,-6.5625,-6.5775,-6.5831,-6.5896,-6.6003,-6.6072,-6.6175,-6.6221,-6.6336,-6.6398,-6.6487,-6.656,-6.6536,-6.6709,-6.6691,-6.6747,-6.6745,-6.6778,-6.6775,-6.6897,-6.6819,-6.6819,-6.6819,-6.6819,0,-6.5364,-6.5463,-6.5583,-6.5658,-6.5771,-6.585,-6.5959,-6.6028,-6.6123,-6.6212,-6.6264,-6.6347,-6.644,-6.6535,-6.6594,-6.6714,-6.6742,-6.6779,-6.6793,-6.6773,-6.6768,-6.681,-6.6805,-6.6823,-6.6822,-6.6821,-6.6821,0,-6.5408,-6.5493,-6.5629,-6.5762,-6.5798,-6.5875,-6.5988,-6.6064,-6.6131,-6.6244,-6.6275,-6.638,-6.6495,-6.6578,-6.6726,-6.6766,-6.6895,-6.6909,-6.6858,-6.6864,-6.6915,-6.6908,-6.7067,-6.7091,-6.6998,-6.6999,-6.7,0,-6.5463,-6.5541,-6.5683,-6.5747,-6.5812,-6.5915,-6.5987,-6.6068,-6.6141,-6.6272,-6.6331,-6.645,-6.6549,-6.6731,-6.682,-6.6935,-6.6951,-6.6999,-6.6969,-6.6947,-6.6951,-6.6945,-6.6953,-6.7003,-6.7003,-6.7004,-6.7004,0,-6.5552,-6.5591,-6.5692,-6.581,-6.5894,-6.599,-6.6086,-6.6136,-6.6235,-6.6314,-6.6433,-6.651,-6.6662,-6.678,-6.6903,-6.6971,-6.7004,-6.7014,-6.7032,-6.7012,-6.6978,-6.6996,-6.6868,-6.7009,-6.7008,-6.7008,-6.7008,-6.7008,-6.5603,-6.5675,-6.5786,-6.5898,-6.598,-6.6069,-6.6147,-6.6225,-6.6326,-6.6456,-6.6499,-6.6622,-6.6731,-6.69,-6.697,-6.7067,-6.7065,-6.7092,-6.7099,-6.7104,-6.7102,-6.6965,-6.709,-6.709,-6.709,-6.709,-6.709,0,-6.5694,-6.5769,-6.5871,-6.6006,-6.6094,-6.612,-6.6229,-6.63,-6.6408,-6.6507,-6.6604,-6.6742,-6.6857,-6.6957,-6.7076,-6.7135,-6.7153,-6.7164,-6.7159,-6.7174,-6.7098,-6.7069,-6.7147,-6.7147,-6.7147,-6.7147,-6.7147,-6.7147,-6.5752,-6.5875,-6.5927,-6.6091,-6.6166,-6.6287,-6.6347,-6.643,-6.651,-6.6661,-6.6757,-6.6822,-6.6922,-6.7049,-6.7156,-6.7183,-6.7224,-6.723,-6.726,-6.7186,-6.7179,-6.7173,-6.7146,-6.7239,-6.7239,-6.7328,-6.7329,-6.7329]},{"header":{"parameterUnit":"m.s-1","parameterCategory":1,"la1":30.2991,"la2":30.254,"lo1":-89.0895,"lo2":-89.0444,"dy":0.0017,"dx":0.0017,"nx":28,"ny":28,"refTime":"2024-04-09T03:00:00:Z","depth":0,"parameterNumber":3,"parameterNumberName":"V-component_of_WINDS"},"data":[0,0,0,0,0,0,0,0,0,0,0,0,0,0,0,0,0,0,0,0,0,0,0,0,0,0,0,0,0,0,0,0,0,0,0,0,0,0,0,0,0,0,0,0,0,0,0,0,0,0,0,0,0,0,0,0,0,0,9.2393,9.2393,0,9.2406,9.2406,9.2406,9.2323,9.2321,9.2319,9.2316,9.2327,9.233,9.2332,0,0,0,0,0,0,0,0,0,0,0,0,0,9.2296,9.2298,9.2393,9.2393,9.2393,9.2405,9.2406,9.2406,9.2324,9.2321,9.2318,9.2315,9.2326,9.2329,9.2332,0,0,0,0,0,0,0,0,0,0,0,0,0,9.2326,9.2299,9.2393,9.2354,9.2351,9.2405,9.2406,9.2406,9.2324,9.2321,9.2317,9.2314,9.2325,9.2329,9.2333,9.2425,0,0,9.2344,9.2345,0,0,0,0,0,0,0,0,9.2325,9.233,9.236,9.2357,9.2353,9.2359,9.2375,9.2412,9.2325,9.2334,9.2316,9.2312,9.2341,9.2343,9.2353,9.2426,9.2426,9.2344,9.2346,9.2348,9.2349,0,0,0,0,0,0,0,9.2323,9.2329,9.2398,9.236,9.2356,9.2335,9.2335,9.2382,9.2357,9.2333,9.2327,9.233,9.2338,9.2349,9.2352,9.2426,9.2344,9.2347,9.235,9.2351,9.2575,9.2578,0,0,0,0,0,0,9.2326,9.2328,9.2397,9.2398,9.233,9.234,9.234,9.2361,9.2356,9.2352,9.2333,9.2326,9.2345,9.2348,9.2352,9.246,9.2348,9.2351,9.2354,9.2571,9.2576,9.258,0,0,0,0,0,0,9.2324,9.2333,9.2397,9.2361,9.2368,9.2345,9.2369,9.2363,9.2374,9.2356,9.2351,9.2349,9.2342,9.2347,9.2408,9.2459,9.2353,9.2356,9.2567,9.2572,9.2578,9.2675,0,0,0,0,0,0,9.2322,9.2333,9.2368,9.2363,9.237,9.2453,9.2372,9.2366,9.2381,9.2372,9.237,9.2366,9.234,9.2403,9.2411,9.2462,9.2359,9.2562,9.2569,9.2576,9.2667,9.2684,9.2697,0,0,0,0,0,9.2319,9.2395,9.2371,9.2379,9.2414,9.2456,9.246,9.2429,9.2385,9.242,9.2409,9.2366,9.2452,9.2409,9.2419,9.2471,9.2558,9.2567,9.2575,9.2661,9.268,9.2697,0,0,0,0,0,0,9.2406,9.2394,9.2366,9.2443,9.2452,9.2442,9.2485,9.2451,9.2471,9.2462,9.2422,9.2422,9.2489,9.2486,9.2439,9.256,9.2498,9.2508,9.2559,9.2578,9.2593,9.2592,9.2362,0,0,0,0,0,9.2435,9.2471,9.2457,9.2527,9.2532,9.2508,9.2525,9.2501,9.2507,9.251,9.2503,9.251,9.2539,9.2558,9.2584,9.2667,9.2665,9.2708,9.2723,9.2735,9.2744,9.2788,9.2806,9.2607,9.2607,9.2607,0,0,9.2494,9.2491,9.2516,9.2544,9.2548,9.2585,9.2512,9.2554,9.2581,9.2516,9.2573,9.2568,9.2573,9.2646,9.2677,9.2645,9.2799,9.2746,9.2756,9.2758,9.2798,9.2817,9.2834,9.2613,9.2612,9.2611,0,0,9.262,9.2622,9.268,9.2685,9.2691,9.2675,9.2689,9.2685,9.2679,9.2735,9.2687,9.2719,9.2769,9.2775,9.2784,9.2913,9.2874,9.2922,9.3,9.3043,9.3059,9.3072,9.3117,9.3134,9.2932,9.2932,9.2932,0,9.2692,9.2747,9.2713,9.2759,9.2773,9.2717,9.2774,9.278,9.2795,9.2805,9.2769,9.2831,9.2831,9.2903,9.2935,9.2945,9.2959,9.2922,9.3059,9.3073,9.3085,9.3127,9.3145,9.2938,9.2937,9.2937,9.2936,0,9.2835,9.2873,9.2919,9.2935,9.2953,9.3005,9.2979,9.3002,9.2976,9.2963,9.3021,9.3019,9.3042,9.3058,9.3033,9.3127,9.3107,9.3066,9.3002,9.311,9.3149,9.3165,9.2946,9.2944,9.2942,9.2941,0,0,9.3015,9.3013,9.303,9.3036,9.3039,9.3068,9.3117,9.3141,9.3161,9.3173,9.3212,9.3256,9.3218,9.3229,9.3204,9.3242,9.3343,9.3196,9.3196,9.3223,9.3446,9.3476,9.3495,9.3318,9.3321,9.3323,9.3445,0,9.3138,9.3222,9.3193,9.3278,9.3313,9.326,9.3303,9.3309,9.3298,9.3326,9.3314,9.3346,9.3294,9.33,9.3335,9.3324,9.3387,9.3314,9.3353,9.3355,9.3352,9.3516,9.3548,9.3662,9.346,9.3463,9.3465,0,9.3292,9.331,9.3399,9.3396,9.3409,9.3448,9.3467,9.3495,9.3501,9.349,9.3503,9.347,9.3517,9.3454,9.3518,9.3469,9.3483,9.348,9.3484,9.3485,9.3416,9.3521,9.3698,9.3715,9.3489,9.3487,9.3485,0,9.3414,9.3461,9.352,9.3527,9.3525,9.3553,9.3554,9.3556,9.3572,9.3589,9.3599,9.3621,9.3633,9.3651,9.3624,9.3581,9.3692,9.3627,9.3683,9.3684,9.3708,9.3707,9.3889,9.3719,9.3719,9.3719,9.3719,0,9.3553,9.3609,9.3575,9.3611,9.3672,9.3638,9.3699,9.3694,9.3696,9.373,9.3686,9.3718,9.3682,9.3711,9.3691,9.3746,9.3752,9.3744,9.3738,9.3748,9.3749,9.3756,9.3747,9.3723,9.3722,9.3722,9.3721,0,9.3699,9.3679,9.3739,9.3733,9.3732,9.3778,9.3771,9.3804,9.3791,9.3834,9.3842,9.3821,9.3853,9.3828,9.3859,9.3846,9.3919,9.3902,9.3917,9.3912,9.3969,9.3964,9.4162,9.4186,9.4002,9.4004,9.4005,0,9.3789,9.3831,9.3829,9.3849,9.3852,9.3884,9.3901,9.3869,9.3888,9.3898,9.3929,9.3957,9.3978,9.4031,9.4018,9.4041,9.4024,9.4091,9.4027,9.4035,9.4023,9.4021,9.4024,9.4104,9.4106,9.4108,9.411,0,9.395,9.3938,9.3964,9.3986,9.4007,9.4023,9.4035,9.4053,9.4021,9.4044,9.4076,9.4092,9.4124,9.4152,9.4171,9.4171,9.4135,9.413,9.4144,9.4154,9.4161,9.4157,9.3951,9.4126,9.4124,9.4123,9.4122,9.4121,9.407,9.4105,9.4109,9.4139,9.4145,9.4157,9.4187,9.4178,9.4204,9.4228,9.4208,9.4246,9.425,9.4272,9.4276,9.4305,9.4277,9.4298,9.4303,9.4308,9.4316,9.4158,9.4309,9.4308,9.4308,9.4307,9.4307,0,9.4228,9.4228,9.4256,9.4275,9.4298,9.4263,9.4275,9.4297,9.4331,9.4338,9.436,9.4396,9.4423,9.4413,9.4436,9.4462,9.4446,9.4469,9.4466,9.4466,9.4341,9.4325,9.4481,9.4481,9.4481,9.4481,9.4481,9.4481,9.4313,9.437,9.4358,9.4417,9.4416,9.4454,9.4463,9.4474,9.448,9.4523,9.4545,9.4538,9.4538,9.4562,9.4585,9.4581,9.4591,9.462,9.461,9.4493,9.4475,9.4459,9.4445,9.4623,9.4623,9.4734,9.4735,9.4735]}]]